Ionia, MI

12:47 PM EDT on October 01, 2016 (GMT -0400)
Ionia

Weather History for KY70 - April, 2013

Change the Weather History Date:

Sunday, April 7, 2013

  Actual Average (KGRR) Record (KGRR)
Temperature  
Mean Temperature 45 °F 45 °F  
Max Temperature 56 °F 55 °F 81 °F (1991)
Min Temperature 34 °F 35 °F 3 °F (1982)
Degree Days  
Heating Degree Days 20 20  
Month to date heating degree days 152  
Since 1 July heating degree days 5839  
Cooling Degree Days 0 0  
Month to date cooling degree days 0  
Year to date cooling degree days 1  
Moisture  
Dew Point 37 °F    
Average Humidity 72    
Maximum Humidity 93    
Minimum Humidity 53    
Precipitation  
Precipitation 0.01 in 0.11 in 1.06 in (2006)
Month to date precipitation 0.73  
Year to date precipitation 6.98  
Snow  
Snow 0.00 in 0.10 in 5.00 in (1956)
Month to date snowfall 0.8  
Since 1 July snowfall 73.9  
Snow Depth -    
Sea Level Pressure  
Sea Level Pressure 29.81 in    
Wind  
Wind Speed 13 mph (West)    
Max Wind Speed 25 mph    
Max Gust Speed 37 mph    
Visibility 10 miles    
Events Rain    
T = Trace of Precipitation, MM = Missing Value Source: NWS Daily Summary

Daily Weather History Graph

Daily Weather History Graph

Search for Another Location

Airport or City:

Trip Planner

Search our weather history database for the weather conditions in past years. The results will help you decide how hot, cold, wet, or windy it might be!

Date:

Astronomy

Apr. 07, 2013 Rise Set
Actual Time 7:11 AM EDT 8:13 PM EDT
Civil Twilight 6:42 AM EDT 8:42 PM EDT
Nautical Twilight 6:08 AM EDT 9:17 PM EDT
Astronomical Twilight 5:31 AM EDT 9:53 PM EDT
Moon 5:32 AM EDT (4/7) 5:42 PM EDT (4/7)
Length of Visible Light 14h 00m
Length of Day
13h 02m
Waning Crescent, 8% of the Moon is Illuminated
Apr 7
Waning Crescent
Apr 10
New
Apr 18
First Quarter
Apr 25
Full
May 2
Last Quarter

Hourly Weather History & Observations

Time (EDT) Temp. Windchill Dew Point Humidity Pressure Visibility Wind Dir Wind Speed Gust Speed Precip Events Conditions
12:14 AM 53.8 °F - 39.2 °F 58% 29.67 in 10.0 mi South 9.2 mph - N/A   Light Drizzle
12:34 AM 53.6 °F - 39.0 °F 58% 29.65 in 10.0 mi South 10.4 mph - N/A   Overcast
12:54 AM 54.7 °F - 37.8 °F 53% 29.64 in 10.0 mi South 12.7 mph - N/A   Overcast
1:14 AM 55.4 °F - 38.8 °F 54% 29.63 in 10.0 mi South 12.7 mph - N/A   Overcast
1:34 AM 55.8 °F - 39.4 °F 54% 29.61 in 10.0 mi South 12.7 mph - N/A   Overcast
1:54 AM 55.8 °F - 40.1 °F 56% 29.60 in 10.0 mi South 15.0 mph - N/A Rain Light Rain
2:14 AM 54.9 °F - 42.4 °F 63% 29.61 in 10.0 mi SW 10.4 mph 19.6 mph N/A Rain Light Rain
2:34 AM 55.4 °F - 43.7 °F 65% 29.59 in 10.0 mi SSW 18.4 mph 28.8 mph N/A Rain Rain
2:54 AM 56.5 °F - 43.9 °F 63% 29.58 in 10.0 mi SSW 18.4 mph 27.6 mph N/A   Overcast
3:14 AM 56.3 °F - 44.1 °F 64% 29.57 in 10.0 mi SSW 18.4 mph 25.3 mph N/A   Overcast
3:34 AM 56.1 °F - 45.0 °F 66% 29.57 in 10.0 mi SW 21.9 mph 32.2 mph N/A Rain Light Rain
3:54 AM 54.0 °F - 46.9 °F 77% 29.57 in 10.0 mi WSW 15.0 mph 25.3 mph N/A Rain Rain
4:14 AM 52.9 °F - 47.7 °F 82% 29.55 in 10.0 mi SW 9.2 mph - N/A   Overcast
4:34 AM 54.3 °F - 47.3 °F 77% 29.55 in 10.0 mi SW 15.0 mph - N/A   Overcast
4:54 AM 55.2 °F - 47.3 °F 75% 29.55 in 10.0 mi SW 18.4 mph 26.5 mph N/A   Overcast
5:14 AM 55.6 °F - 47.3 °F 74% 29.55 in 10.0 mi WSW 25.3 mph 31.1 mph N/A   Overcast
5:34 AM 55.6 °F - 47.7 °F 75% 29.56 in 10.0 mi WSW 19.6 mph 33.4 mph N/A   Overcast
5:54 AM 52.5 °F - 49.6 °F 90% 29.57 in 3.0 mi WSW 21.9 mph 29.9 mph 0.01 in   Heavy Drizzle
6:14 AM 51.4 °F - 49.5 °F 93% 29.59 in 4.0 mi West 21.9 mph 36.8 mph N/A   Drizzle
6:34 AM 50.2 °F - 48.2 °F 93% 29.61 in 5.0 mi West 23.0 mph 31.1 mph N/A   Drizzle
6:54 AM 47.5 °F - 45.1 °F 92% 29.63 in 5.0 mi West 21.9 mph 35.7 mph N/A   Light Drizzle
7:14 AM 45.7 °F 37.4 °F 43.2 °F 91% 29.65 in 10.0 mi West 23.0 mph 31.1 mph N/A   Overcast
7:34 AM 44.6 °F 37.2 °F 40.6 °F 86% 29.67 in 10.0 mi West 17.3 mph 29.9 mph N/A   Overcast
7:54 AM 43.9 °F 34.7 °F 39.9 °F 86% 29.70 in 10.0 mi West 24.2 mph 29.9 mph N/A   Overcast
8:14 AM 42.8 °F 33.1 °F 38.3 °F 84% 29.72 in 10.0 mi West 25.3 mph 33.4 mph N/A   Overcast
8:34 AM 42.3 °F 33.8 °F 37.9 °F 85% 29.73 in 10.0 mi WNW 18.4 mph 28.8 mph N/A   Overcast
8:54 AM 41.9 °F 32.3 °F 37.2 °F 83% 29.74 in 10.0 mi West 23.0 mph 28.8 mph N/A   Overcast
9:14 AM 42.1 °F 33.6 °F 36.7 °F 81% 29.75 in 10.0 mi West 18.4 mph 24.2 mph N/A   Overcast
9:34 AM 41.9 °F 33.4 °F 36.5 °F 81% 29.76 in 10.0 mi West 18.4 mph 26.5 mph N/A   Overcast
9:54 AM 41.9 °F 33.1 °F 36.0 °F 79% 29.78 in 10.0 mi West 19.6 mph 27.6 mph N/A   Overcast
10:14 AM 41.9 °F 33.1 °F 35.8 °F 79% 29.79 in 10.0 mi West 19.6 mph 24.2 mph N/A   Overcast
10:34 AM 41.7 °F 33.1 °F 35.6 °F 79% 29.80 in 10.0 mi West 18.4 mph 25.3 mph N/A   Overcast
10:54 AM 41.7 °F 33.7 °F 35.6 °F 79% 29.81 in 10.0 mi West 16.1 mph 23.0 mph N/A   Overcast
11:14 AM 41.9 °F 34.6 °F 34.7 °F 76% 29.82 in 10.0 mi West 13.8 mph 24.2 mph N/A   Overcast
11:34 AM 41.9 °F 33.4 °F 34.5 °F 75% 29.84 in 10.0 mi West 18.4 mph 25.3 mph N/A   Overcast
11:54 AM 41.9 °F 35.0 °F 34.7 °F 76% 29.85 in 10.0 mi WNW 12.7 mph 21.9 mph N/A   Overcast
12:14 PM 41.9 °F 34.0 °F 34.2 °F 74% 29.86 in 10.0 mi West 16.1 mph - N/A   Overcast
12:34 PM 42.3 °F 34.1 °F 33.8 °F 72% 29.87 in 10.0 mi West 17.3 mph 24.2 mph N/A   Overcast
12:54 PM 42.4 °F 35.0 °F 33.8 °F 71% 29.88 in 10.0 mi West 15.0 mph 20.7 mph N/A   Overcast
1:14 PM 42.8 °F 35.4 °F 33.8 °F 70% 29.89 in 10.0 mi WNW 15.0 mph - N/A   Overcast
1:34 PM 43.0 °F 36.0 °F 33.8 °F 70% 29.89 in 10.0 mi WNW 13.8 mph 18.4 mph N/A   Overcast
1:54 PM 44.8 °F 38.3 °F 34.2 °F 66% 29.90 in 10.0 mi WNW 13.8 mph 20.7 mph N/A   Overcast
2:14 PM 45.0 °F 39.7 °F 34.0 °F 65% 29.90 in 10.0 mi West 10.4 mph 17.3 mph N/A   Overcast
2:34 PM 45.3 °F 39.7 °F 34.0 °F 65% 29.91 in 10.0 mi WNW 11.5 mph 17.3 mph N/A   Overcast
2:54 PM 44.6 °F 38.4 °F 33.4 °F 65% 29.92 in 10.0 mi WNW 12.7 mph - N/A   Overcast
3:14 PM 44.6 °F 37.8 °F 33.3 °F 64% 29.93 in 10.0 mi WNW 15.0 mph 18.4 mph N/A   Overcast
3:34 PM 45.0 °F 39.3 °F 33.1 °F 63% 29.93 in 10.0 mi WNW 11.5 mph - N/A   Overcast
3:54 PM 45.5 °F 40.3 °F 33.1 °F 62% 29.93 in 10.0 mi NW 10.4 mph - N/A   Overcast
4:14 PM 45.5 °F 38.9 °F 33.3 °F 62% 29.95 in 10.0 mi WNW 15.0 mph - N/A   Overcast
4:34 PM 45.9 °F 40.0 °F 32.7 °F 60% 29.95 in 10.0 mi NW 12.7 mph 16.1 mph N/A   Overcast
4:54 PM 46.0 °F 40.6 °F 32.9 °F 60% 29.95 in 10.0 mi NW 11.5 mph - N/A   Overcast
5:14 PM 45.5 °F 41.3 °F 32.5 °F 61% 29.96 in 10.0 mi NW 8.1 mph - N/A   Overcast
5:34 PM 46.4 °F 41.9 °F 32.9 °F 59% 29.97 in 10.0 mi NW 9.2 mph - N/A   Mostly Cloudy
5:54 PM 47.1 °F - 32.5 °F 57% 29.97 in 10.0 mi NW 8.1 mph - N/A   Scattered Clouds
6:14 PM 46.6 °F - 32.2 °F 57% 29.97 in 10.0 mi WNW 4.6 mph - N/A   Clear
6:34 PM 46.2 °F 44.1 °F 32.4 °F 58% 29.97 in 10.0 mi NW 4.6 mph - N/A   Scattered Clouds
6:54 PM 45.5 °F 43.2 °F 32.2 °F 60% 29.98 in 10.0 mi North 4.6 mph - N/A   Clear
7:14 PM 45.0 °F - 32.2 °F 61% 29.98 in 10.0 mi Calm Calm - N/A   Clear
7:34 PM 43.9 °F - 32.0 °F 63% 29.98 in 10.0 mi Calm Calm - N/A   Clear
7:54 PM 43.3 °F - 32.0 °F 64% 29.99 in 10.0 mi Calm Calm - N/A   Clear
8:14 PM 42.8 °F - 32.0 °F 66% 29.99 in 10.0 mi Calm Calm - N/A   Clear
8:34 PM 40.8 °F - 31.8 °F 70% 29.99 in 10.0 mi Calm Calm - N/A   Clear
8:54 PM 39.6 °F 37.4 °F 31.6 °F 73% 29.99 in 10.0 mi ENE 3.5 mph - N/A   Clear
9:14 PM 37.8 °F 34.2 °F 31.5 °F 78% 30.00 in 10.0 mi ENE 4.6 mph - N/A   Clear
9:34 PM 37.8 °F 34.2 °F 31.8 °F 79% 30.00 in 10.0 mi ENE 4.6 mph - N/A   Clear
9:54 PM 37.8 °F 33.3 °F 31.8 °F 79% 30.00 in 10.0 mi ENE 5.8 mph - N/A   Clear
10:14 PM 37.6 °F 33.1 °F 31.6 °F 79% 30.00 in 10.0 mi ENE 5.8 mph - N/A   Clear
10:34 PM 37.2 °F 34.7 °F 31.8 °F 81% 30.02 in 10.0 mi ENE 3.5 mph - N/A   Clear
10:54 PM 36.9 °F 34.3 °F 31.8 °F 82% 30.02 in 10.0 mi ENE 3.5 mph - N/A   Clear
11:14 PM 34.5 °F 30.4 °F 31.1 °F 87% 30.02 in 10.0 mi East 4.6 mph - N/A   Clear
11:34 PM 34.0 °F 31.0 °F 30.2 °F 86% 30.02 in 10.0 mi East 3.5 mph - N/A   Clear
11:54 PM 34.5 °F 30.4 °F 31.5 °F 89% 30.02 in 10.0 mi East 4.6 mph - N/A   Clear